Weather History for Pittsburg, KS

Change the Weather History Date:

Wednesday, May 7, 2014

  Actual Average (KJLN) Record (KJLN)
Temperature  
Mean Temperature 77 °F 65 °F  
Max Temperature 84 °F 76 °F 88 °F (1962)
Min Temperature 70 °F 54 °F 36 °F (1976)
Degree Days  
Heating Degree Days 0 3  
Month to date heating degree days 25  
Since 1 July heating degree days 4028  
Cooling Degree Days 12 3  
Month to date cooling degree days 17  
Year to date cooling degree days 71  
Growing Degree Days 27 (Base 50)    
Moisture  
Dew Point 61 °F    
Average Humidity 59    
Maximum Humidity 73    
Minimum Humidity 43    
Precipitation  
Precipitation 0.00 in 0.19 in 5.71 in (2008)
Month to date precipitation 1.36  
Year to date precipitation 13.60  
Sea Level Pressure  
Sea Level Pressure 29.71 in    
Wind  
Wind Speed 16 mph (SSW)    
Max Wind Speed 24 mph    
Max Gust Speed 32 mph    
Visibility 10 miles    
Events      
T = Trace of Precipitation, MM = Missing Value Source: NWS Daily Summary

Daily Weather History Graph

Daily Weather History Graph

Search for Another Location

Airport:

Trip Planner

Search our weather history database for the weather conditions in past years. The results will help you decide how hot, cold, wet, or windy it might be!

Date:

Astronomy

May. 07, 2014 Rise Set
Actual Time 6:17 AM CDT 8:14 PM CDT
Civil Twilight 5:48 AM CDT 8:42 PM CDT
Nautical Twilight 5:14 AM CDT 9:17 PM CDT
Astronomical Twilight 4:36 AM CDT 9:55 PM CDT
Moon 1:28 PM CDT (5/7) 2:08 AM CDT (5/7)
Length of Visible Light 14h 54m
Length of Day
13h 56m
First Quarter, 55% of the Moon is Illuminated
May 7
First Quarter
May 14
Full
May 21
Last Quarter
May 28
New
Jun 5
First Quarter

Hourly Weather History & Observations

Time (CDT) Temp. Heat Index Dew Point Humidity Pressure Visibility Wind Dir Wind Speed Gust Speed Precip Events Conditions
12:15 AM 76.1 °F - 63.0 °F 64% 29.67 in 10.0 mi SSW 13.8 mph 25.3 mph N/A   Unknown
12:35 AM 76.1 °F - 62.6 °F 63% 29.67 in 10.0 mi SSW 13.8 mph 25.3 mph N/A   Unknown
12:55 AM 76.1 °F - 62.1 °F 62% 29.67 in 10.0 mi SSW 17.3 mph 24.2 mph N/A   Unknown
1:15 AM 76.1 °F - 62.1 °F 62% 29.67 in 10.0 mi SSW 20.7 mph 25.3 mph N/A   Unknown
1:35 AM 76.1 °F - 62.2 °F 62% 29.67 in 10.0 mi SSW 17.3 mph 25.3 mph N/A   Unknown
1:55 AM 76.1 °F - 62.4 °F 62% 29.67 in 10.0 mi SSW 12.7 mph - N/A   Unknown
2:15 AM 75.0 °F - 61.9 °F 64% 29.67 in 10.0 mi SSW 15.0 mph 20.7 mph N/A   Unknown
2:35 AM 73.4 °F - 61.0 °F 65% 29.67 in 10.0 mi SSW 12.7 mph 19.6 mph N/A   Unknown
3:15 AM 71.8 °F - 60.3 °F 67% 29.67 in 10.0 mi SSW 15.0 mph 19.6 mph N/A   Unknown
3:35 AM 71.4 °F - 59.7 °F 66% 29.66 in 10.0 mi SSW 16.1 mph 19.6 mph N/A   Unknown
3:55 AM 70.9 °F - 59.4 °F 67% 29.67 in 10.0 mi SSW 13.8 mph - N/A   Unknown
4:15 AM 70.9 °F - 59.7 °F 68% 29.67 in 10.0 mi SSW 13.8 mph 20.7 mph N/A   Unknown
4:35 AM 70.9 °F - 59.9 °F 68% 29.67 in 10.0 mi SSW 13.8 mph 19.6 mph N/A   Unknown
4:55 AM 70.9 °F - 59.9 °F 68% 29.68 in 10.0 mi SSW 13.8 mph - N/A   Unknown
5:15 AM 70.9 °F - 60.1 °F 69% 29.68 in 10.0 mi SSW 12.7 mph 17.3 mph N/A   Unknown
5:35 AM 70.9 °F - 60.8 °F 70% 29.68 in 10.0 mi SSW 12.7 mph - N/A   Unknown
5:55 AM 70.9 °F - 61.0 °F 71% 29.69 in 10.0 mi SSW 12.7 mph - N/A   Unknown
6:15 AM 70.9 °F - 61.5 °F 72% 29.69 in 10.0 mi SSW 12.7 mph 18.4 mph N/A   Unknown
6:35 AM 70.9 °F - 61.7 °F 73% 29.70 in 10.0 mi SSW 12.7 mph 17.3 mph N/A   Unknown
6:55 AM 70.9 °F - 61.7 °F 73% 29.70 in 10.0 mi SSW 12.7 mph - N/A   Unknown
7:15 AM 70.9 °F - 61.7 °F 73% 29.71 in 10.0 mi SSW 12.7 mph - N/A   Unknown
7:35 AM 70.9 °F - 61.2 °F 71% 29.71 in 10.0 mi SSW 17.3 mph 24.2 mph N/A   Unknown
7:55 AM 70.9 °F - 60.1 °F 69% 29.71 in 10.0 mi SSW 18.4 mph 27.6 mph N/A   Unknown
8:15 AM 70.9 °F - 59.5 °F 67% 29.71 in 10.0 mi SSW 19.6 mph 28.8 mph N/A   Unknown
8:35 AM 71.8 °F - 59.9 °F 66% 29.72 in 10.0 mi SSW 18.4 mph 26.5 mph N/A   Unknown
8:55 AM 73.0 °F - 60.6 °F 65% 29.72 in 10.0 mi SW 19.6 mph 29.9 mph N/A   Unknown
9:15 AM 73.9 °F - 61.2 °F 64% 29.72 in 10.0 mi SW 21.9 mph 25.3 mph N/A   Unknown
9:35 AM 76.1 °F - 62.6 °F 63% 29.73 in 10.0 mi SW 19.6 mph 25.3 mph N/A   Unknown
9:55 AM 76.1 °F - 62.1 °F 62% 29.72 in 10.0 mi SW 18.4 mph 28.8 mph N/A   Unknown
10:15 AM 76.1 °F - 61.5 °F 60% 29.72 in 10.0 mi SW 21.9 mph 28.8 mph N/A   Unknown
10:35 AM 76.1 °F - 60.8 °F 59% 29.72 in 10.0 mi SW 19.6 mph 31.1 mph N/A   Unknown
10:55 AM 77.0 °F - 61.3 °F 58% 29.72 in 10.0 mi SSW 24.2 mph 32.2 mph N/A   Unknown
11:15 AM 78.1 °F - 62.4 °F 58% 29.73 in 10.0 mi SSW 19.6 mph 26.5 mph N/A   Unknown
11:35 AM 78.4 °F - 62.2 °F 57% 29.73 in 10.0 mi SSW 21.9 mph 27.6 mph N/A   Unknown
11:55 AM 78.8 °F - 62.1 °F 56% 29.73 in 10.0 mi SSW 16.1 mph 25.3 mph N/A   Unknown
12:15 PM 79.2 °F - 62.2 °F 56% 29.73 in 10.0 mi SSW 20.7 mph 29.9 mph N/A   Unknown
12:35 PM 80.2 °F 81.5 °F 62.6 °F 55% 29.73 in 10.0 mi SSW 19.6 mph 25.3 mph N/A   Unknown
12:55 PM 81.0 °F 82.1 °F 62.6 °F 53% 29.73 in 10.0 mi SSW 20.7 mph 27.6 mph N/A   Unknown
1:15 PM 81.0 °F 81.9 °F 61.7 °F 52% 29.73 in 10.0 mi SW 19.6 mph 26.5 mph N/A   Unknown
1:35 PM 81.3 °F 82.1 °F 61.2 °F 50% 29.72 in 10.0 mi SSW 19.6 mph 27.6 mph N/A   Unknown
1:55 PM 82.0 °F 82.8 °F 61.7 °F 50% 29.72 in 10.0 mi SW 16.1 mph 21.9 mph N/A   Unknown
2:15 PM 82.8 °F 83.6 °F 62.2 °F 50% 29.72 in 10.0 mi South 16.1 mph 21.9 mph N/A   Unknown
2:35 PM 82.9 °F 84.0 °F 63.1 °F 51% 29.72 in 10.0 mi SSW 19.6 mph 27.6 mph N/A   Unknown
2:55 PM 82.9 °F 83.8 °F 62.6 °F 50% 29.72 in 10.0 mi SSW 17.3 mph 25.3 mph N/A   Unknown
3:15 PM 83.1 °F 83.9 °F 62.1 °F 49% 29.72 in 10.0 mi SSW 18.4 mph 24.2 mph N/A   Unknown
3:35 PM 83.7 °F 83.9 °F 61.0 °F 46% 29.71 in 10.0 mi SSW 20.7 mph 25.3 mph N/A   Unknown
3:55 PM 84.2 °F 84.4 °F 61.0 °F 45% 29.71 in 10.0 mi South 20.7 mph 25.3 mph N/A   Unknown
4:15 PM 84.6 °F 84.6 °F 60.4 °F 44% 29.70 in 10.0 mi SSW 23.0 mph 28.8 mph N/A   Unknown
4:35 PM 84.9 °F 84.8 °F 59.9 °F 43% 29.70 in 10.0 mi SSW 17.3 mph 21.9 mph N/A   Unknown
4:55 PM 84.9 °F 85.0 °F 60.6 °F 44% 29.71 in 10.0 mi SW 17.3 mph 24.2 mph N/A   Unknown
5:15 PM 84.9 °F 85.0 °F 60.8 °F 44% 29.71 in 10.0 mi SSW 20.7 mph 29.9 mph N/A   Unknown
5:35 PM 84.6 °F 84.6 °F 60.4 °F 44% 29.71 in 10.0 mi SSW 16.1 mph 25.3 mph N/A   Unknown
5:55 PM 84.4 °F 84.6 °F 61.0 °F 45% 29.70 in 10.0 mi SSW 17.3 mph 25.3 mph N/A   Unknown
6:15 PM 83.1 °F 83.3 °F 60.1 °F 46% 29.70 in 10.0 mi South 18.4 mph 24.2 mph N/A   Unknown
6:35 PM 82.4 °F 82.9 °F 60.6 °F 48% 29.70 in 10.0 mi SSW 19.6 mph - N/A   Unknown
6:55 PM 82.0 °F 82.7 °F 61.3 °F 49% 29.69 in 10.0 mi South 11.5 mph 17.3 mph N/A   Unknown
7:15 PM 81.1 °F 82.1 °F 61.9 °F 52% 29.70 in 10.0 mi SSW 12.7 mph 16.1 mph N/A   Unknown
7:35 PM 81.0 °F 82.1 °F 62.6 °F 53% 29.71 in 10.0 mi SSW 15.0 mph 23.0 mph N/A   Unknown
7:55 PM 80.6 °F 81.8 °F 62.4 °F 54% 29.71 in 10.0 mi SSW 10.4 mph 18.4 mph N/A   Unknown
8:15 PM 78.4 °F - 61.2 °F 55% 29.70 in 10.0 mi South 15.0 mph 19.6 mph N/A   Unknown
8:35 PM 78.4 °F - 62.1 °F 57% 29.72 in 10.0 mi South 10.4 mph 17.3 mph N/A   Unknown
8:55 PM 77.7 °F - 62.8 °F 60% 29.72 in 10.0 mi South 8.1 mph - N/A   Unknown
9:15 PM 77.0 °F - 62.6 °F 61% 29.73 in 10.0 mi South 13.8 mph 20.7 mph N/A   Unknown
9:35 PM 77.9 °F - 62.6 °F 59% 29.72 in 10.0 mi South 13.8 mph 19.6 mph N/A   Unknown
9:55 PM 77.2 °F - 61.5 °F 58% 29.73 in 10.0 mi South 15.0 mph 20.7 mph N/A   Unknown
10:15 PM 76.8 °F - 61.0 °F 58% 29.74 in 10.0 mi South 15.0 mph 20.7 mph N/A   Unknown
10:35 PM 76.3 °F - 60.6 °F 58% 29.75 in 10.0 mi South 15.0 mph 19.6 mph N/A   Unknown
10:55 PM 76.1 °F - 61.0 °F 59% 29.76 in 10.0 mi SSW 13.8 mph 19.6 mph N/A   Unknown
11:15 PM 76.1 °F - 61.7 °F 61% 29.77 in 10.0 mi SSW 18.4 mph 24.2 mph N/A   Unknown
11:55 PM 76.1 °F - 62.4 °F 62% 29.75 in 10.0 mi South 12.7 mph 17.3 mph N/A   Unknown